Location: Diati
(11.8376°N, 2.5966°E)
Time: 18:10:38
(UTC+00:00)

Okean 2 - Pass Details

Date: 21 September 2020
Orbit: 560 x 577 km, 82.5° (Epoch: 20 October)

Event Time Altitude Azimuth Distance (km) Brightness Sun altitude
Rises 18:41:53 0° 352° (N) 2,768 7.0 -14.5°
Reaches altitude 10° 18:44:05 10° 350° (N) 1,868 6.2 -15.0°
Maximum altitude 18:48:11 72° 266° (W) 599 3.6 -16.0°
Drops below altitude 10° 18:52:15 10° 182° (S) 1,857 6.0 -17.0°
Sets 18:54:26 0° 180° (S) 2,751 6.9 -17.5°
